[[{"header":{"parameterUnit":"m.s-1","parameterCategory":1,"la1":30.2991,"la2":30.254,"lo1":-89.0895,"lo2":-89.0444,"dy":0.0017,"dx":0.0017,"nx":28,"ny":28,"refTime":"2024-08-09T03:00:00:Z","depth":0,"parameterNumber":2,"parameterNumberName":"U-component_of_WINDS"},"data":[0,0,0,0,0,0,0,0,0,0,0,0,0,0,0,0,0,0,0,0,0,0,0,0,0,0,0,0,0,0,0,0,0,0,0,0,0,0,0,0,0,0,0,0,0,0,0,0,0,0,0,0,0,0,0,0,0,0,1.8659,1.866,0,1.8807,1.8809,1.8811,1.8795,1.8792,1.879,1.8788,1.8947,1.8953,1.896,0,0,0,0,0,0,0,0,0,0,0,0,0,1.8368,1.8373,1.8659,1.8661,1.8662,1.8807,1.8809,1.8811,1.8795,1.8792,1.8789,1.8787,1.8945,1.8952,1.896,0,0,0,0,0,0,0,0,0,0,0,0,0,1.8503,1.8375,1.8658,1.8672,1.8674,1.8807,1.8809,1.8812,1.8796,1.8792,1.8789,1.8785,1.8942,1.8952,1.8961,1.9092,0,0,1.8991,1.8995,0,0,0,0,0,0,0,0,1.8496,1.8514,1.8668,1.8671,1.8674,1.8779,1.8765,1.8906,1.8797,1.875,1.8788,1.8783,1.8894,1.8908,1.8944,1.91,1.9106,1.8992,1.8998,1.9002,1.9004,0,0,0,0,0,0,0,1.8486,1.8508,1.8718,1.867,1.8674,1.8672,1.8688,1.8792,1.8841,1.8754,1.8753,1.877,1.8895,1.8934,1.8947,1.9109,1.8991,1.9,1.9006,1.901,1.938,1.9384,0,0,0,0,0,0,1.8473,1.85,1.8713,1.8722,1.8574,1.868,1.8698,1.8749,1.8839,1.8849,1.8773,1.8769,1.892,1.8936,1.8953,1.9113,1.9002,1.9011,1.9016,1.9376,1.9381,1.9386,0,0,0,0,0,0,1.8466,1.8492,1.8707,1.8611,1.8638,1.8689,1.8747,1.8754,1.8792,1.8854,1.8863,1.8803,1.8917,1.8939,1.9057,1.9118,1.9015,1.9024,1.9372,1.9378,1.9383,1.9433,0,0,0,0,0,0,1.8458,1.849,1.8538,1.8612,1.8643,1.8807,1.8751,1.8759,1.8808,1.8804,1.8885,1.8895,1.8916,1.9043,1.9067,1.9129,1.9031,1.9366,1.9374,1.9381,1.9426,1.944,1.9451,0,0,0,0,0,1.8448,1.8548,1.8541,1.8567,1.8705,1.8811,1.8829,1.8849,1.8813,1.8864,1.8903,1.8892,1.9107,1.9055,1.9082,1.9148,1.9363,1.9372,1.9381,1.942,1.9437,1.9451,0,0,0,0,0,0,1.8483,1.8558,1.8551,1.8677,1.8737,1.8808,1.8872,1.8866,1.894,1.8934,1.8958,1.8977,1.9096,1.9134,1.9075,1.928,1.923,1.9245,1.9251,1.9267,1.928,1.9269,1.9039,0,0,0,0,0,1.8505,1.8582,1.8644,1.875,1.878,1.8821,1.8868,1.8878,1.8942,1.8969,1.9017,1.9081,1.9163,1.9217,1.9296,1.9431,1.9449,1.949,1.9502,1.9512,1.9526,1.9601,1.962,1.9415,1.9415,1.9415,0,0,1.8552,1.8602,1.865,1.8758,1.8806,1.8888,1.8843,1.8931,1.8993,1.8983,1.9097,1.9134,1.9208,1.9335,1.9394,1.9371,1.9586,1.9524,1.9532,1.954,1.9612,1.9631,1.9648,1.9422,1.9421,1.942,0,0,1.868,1.8725,1.8818,1.8866,1.8938,1.8964,1.8987,1.9058,1.9082,1.9196,1.919,1.9265,1.9405,1.9458,1.9504,1.9651,1.9644,1.9676,1.9743,1.9816,1.9832,1.9846,1.99,1.9919,1.9688,1.9688,1.9689,0,1.873,1.8851,1.8867,1.8956,1.9005,1.8996,1.9092,1.9139,1.9234,1.9269,1.9241,1.9417,1.9466,1.9606,1.9641,1.9678,1.9706,1.9667,1.9828,1.9843,1.9856,1.9908,1.9928,1.9692,1.9692,1.9691,1.9691,0,1.891,1.8994,1.9061,1.915,1.9206,1.9298,1.933,1.9385,1.939,1.942,1.9537,1.9595,1.9686,1.9719,1.9727,1.9861,1.9844,1.9822,1.9773,1.9879,1.9928,1.9948,1.9697,1.9696,1.9695,1.9694,0,0,1.9066,1.9161,1.9186,1.9226,1.9305,1.9371,1.9463,1.9549,1.9596,1.9662,1.9742,1.986,1.9839,1.9891,1.9904,1.9968,2.0081,1.9938,1.994,1.9964,2.0234,2.0252,2.0274,2.0077,2.008,2.0083,2.0228,0,1.9203,1.9363,1.938,1.9524,1.9603,1.9596,1.9676,1.9734,1.9764,1.9837,1.9871,1.9955,1.9921,1.9952,2.0014,2.0054,2.0136,2.0044,2.0153,2.0157,2.0136,2.0299,2.0318,2.0452,2.0248,2.0251,2.0253,0,1.9384,1.9452,1.9603,1.967,1.9704,1.9776,1.9856,1.9925,1.9991,2.0008,2.0065,2.0069,2.0167,2.0112,2.0247,2.0184,2.023,2.0256,2.0262,2.0274,2.0213,2.0318,2.0496,2.0516,2.0283,2.0281,2.0279,0,1.9484,1.9614,1.9721,1.9756,1.9836,1.9887,1.9924,1.9986,2.0036,2.0107,2.0141,2.0223,2.0269,2.0333,2.036,2.0318,2.0495,2.0442,2.0514,2.0514,2.0553,2.0551,2.0742,2.058,2.058,2.0579,2.0579,0,1.9636,1.9729,1.9767,1.9834,1.9938,1.9957,2.0061,2.0096,2.0151,2.0226,2.0225,2.0295,2.0326,2.0402,2.0424,2.0533,2.0554,2.0572,2.0578,2.0574,2.0571,2.0605,2.0597,2.0585,2.0583,2.0582,2.0581,0,1.9767,1.9795,1.9912,1.9978,1.9996,2.0071,2.0128,2.0194,2.0222,2.0316,2.034,2.0385,2.0474,2.0507,2.0616,2.0631,2.0758,2.0755,2.0736,2.0737,2.0808,2.0801,2.1029,2.1061,2.0876,2.0878,2.0879,0,1.9863,1.9934,2.0006,2.0055,2.0092,2.0171,2.0221,2.0243,2.0297,2.0377,2.0433,2.052,2.0592,2.0735,2.078,2.0864,2.0864,2.0937,2.0876,2.087,2.0867,2.0863,2.0871,2.095,2.0952,2.0953,2.0954,0,2.003,2.0041,2.0113,2.019,2.025,2.0313,2.0374,2.0414,2.0445,2.0506,2.0595,2.065,2.076,2.0849,2.0934,2.0974,2.0971,2.0973,2.0994,2.0992,2.0978,2.0988,2.0768,2.0968,2.0967,2.0966,2.0965,2.0964,2.0148,2.0211,2.0271,2.0352,2.0399,2.0456,2.052,2.0555,2.0629,2.0719,2.0728,2.0825,2.0889,2.1003,2.1047,2.1125,2.1105,2.1136,2.1144,2.1152,2.1157,2.0963,2.114,2.114,2.114,2.1139,2.1139,0,2.0317,2.0355,2.0428,2.0512,2.0576,2.0563,2.0629,2.0684,2.0769,2.0828,2.0897,2.1001,2.1086,2.1136,2.1222,2.1275,2.1275,2.1297,2.1294,2.1304,2.1169,2.1143,2.1295,2.1295,2.1295,2.1295,2.1295,2.1295,2.0413,2.0519,2.0536,2.0666,2.0704,2.0797,2.0836,2.0889,2.0936,2.105,2.112,2.1151,2.1207,2.1297,2.1375,2.1388,2.1421,2.1444,2.1456,2.1329,2.1313,2.1298,2.1273,2.1451,2.1451,2.1584,2.1585,2.1586]},{"header":{"parameterUnit":"m.s-1","parameterCategory":1,"la1":30.2991,"la2":30.254,"lo1":-89.0895,"lo2":-89.0444,"dy":0.0017,"dx":0.0017,"nx":28,"ny":28,"refTime":"2024-08-09T03:00:00:Z","depth":0,"parameterNumber":3,"parameterNumberName":"V-component_of_WINDS"},"data":[0,0,0,0,0,0,0,0,0,0,0,0,0,0,0,0,0,0,0,0,0,0,0,0,0,0,0,0,0,0,0,0,0,0,0,0,0,0,0,0,0,0,0,0,0,0,0,0,0,0,0,0,0,0,0,0,0,0,-0.1762,-0.1761,0,-0.1637,-0.1636,-0.1635,-0.1641,-0.1643,-0.1645,-0.1646,-0.1519,-0.1514,-0.1509,0,0,0,0,0,0,0,0,0,0,0,0,0,-0.2007,-0.2002,-0.1762,-0.176,-0.1759,-0.1638,-0.1636,-0.1634,-0.1641,-0.1643,-0.1645,-0.1647,-0.1521,-0.1515,-0.1509,0,0,0,0,0,0,0,0,0,0,0,0,0,-0.1893,-0.2001,-0.1762,-0.1747,-0.1745,-0.1638,-0.1636,-0.1634,-0.164,-0.1643,-0.1646,-0.1648,-0.1523,-0.1515,-0.1508,-0.1408,0,0,-0.1485,-0.1481,0,0,0,0,0,0,0,0,-0.19,-0.1884,-0.1751,-0.1748,-0.1745,-0.1658,-0.1676,-0.1558,-0.164,-0.168,-0.1646,-0.1649,-0.1563,-0.1552,-0.1523,-0.1402,-0.1396,-0.1484,-0.1479,-0.1476,-0.1474,0,0,0,0,0,0,0,-0.1907,-0.1889,-0.1713,-0.1749,-0.1746,-0.1748,-0.1734,-0.1653,-0.1608,-0.1677,-0.1677,-0.1662,-0.1562,-0.153,-0.152,-0.1394,-0.1484,-0.1477,-0.1473,-0.147,-0.1186,-0.1183,0,0,0,0,0,0,-0.1918,-0.1896,-0.1717,-0.1709,-0.1831,-0.1741,-0.1726,-0.1683,-0.1609,-0.16,-0.166,-0.1663,-0.1542,-0.1529,-0.1516,-0.1394,-0.1476,-0.1469,-0.1465,-0.1189,-0.1185,-0.1182,0,0,0,0,0,0,-0.1924,-0.1902,-0.1722,-0.1802,-0.178,-0.1734,-0.1685,-0.1679,-0.1648,-0.1596,-0.1588,-0.1636,-0.1543,-0.1526,-0.1435,-0.1389,-0.1466,-0.1459,-0.1192,-0.1187,-0.1183,-0.1149,0,0,0,0,0,0,-0.1931,-0.1904,-0.1865,-0.1802,-0.1775,-0.1642,-0.1682,-0.1675,-0.1634,-0.1637,-0.1572,-0.1563,-0.1544,-0.1446,-0.1427,-0.138,-0.1453,-0.1196,-0.119,-0.1185,-0.1154,-0.1144,-0.1135,0,0,0,0,0,-0.1939,-0.186,-0.1863,-0.1841,-0.1725,-0.164,-0.1625,-0.1604,-0.1631,-0.1591,-0.1559,-0.1565,-0.1398,-0.1436,-0.1415,-0.1366,-0.1199,-0.1192,-0.1185,-0.1158,-0.1146,-0.1135,0,0,0,0,0,0,-0.1919,-0.1852,-0.1854,-0.1752,-0.1701,-0.1641,-0.159,-0.1592,-0.1533,-0.1538,-0.1515,-0.15,-0.1409,-0.1378,-0.1422,-0.1265,-0.1302,-0.129,-0.1288,-0.1276,-0.1267,-0.1276,-0.1447,0,0,0,0,0,-0.1903,-0.1839,-0.1783,-0.1699,-0.1673,-0.1636,-0.1598,-0.1587,-0.1534,-0.1512,-0.1473,-0.1421,-0.1357,-0.1315,-0.1253,-0.115,-0.1136,-0.1106,-0.1096,-0.1089,-0.1079,-0.1023,-0.1009,-0.1159,-0.116,-0.116,0,0,-0.1869,-0.1824,-0.1784,-0.1693,-0.1653,-0.1587,-0.1618,-0.1547,-0.1498,-0.1502,-0.1413,-0.1382,-0.1323,-0.1225,-0.118,-0.1197,-0.1035,-0.108,-0.1075,-0.1069,-0.1014,-0.1,-0.0988,-0.1155,-0.1156,-0.1156,0,0,-0.1773,-0.1732,-0.1657,-0.1616,-0.1555,-0.1531,-0.1514,-0.1453,-0.1432,-0.1343,-0.1345,-0.1287,-0.1176,-0.1134,-0.1099,-0.0988,-0.0992,-0.0969,-0.092,-0.0865,-0.0853,-0.0843,-0.0803,-0.0789,-0.096,-0.0959,-0.0959,0,-0.1738,-0.1638,-0.1619,-0.1547,-0.1507,-0.1508,-0.1433,-0.1394,-0.1316,-0.1288,-0.1309,-0.1171,-0.1131,-0.1024,-0.0997,-0.0968,-0.0948,-0.0976,-0.0857,-0.0846,-0.0835,-0.0798,-0.0783,-0.0957,-0.0957,-0.0958,-0.0958,0,-0.1598,-0.1529,-0.1477,-0.1401,-0.1355,-0.1282,-0.1252,-0.1209,-0.1202,-0.1176,-0.1086,-0.1039,-0.0967,-0.0942,-0.0934,-0.0833,-0.0846,-0.0861,-0.0897,-0.0819,-0.0783,-0.0768,-0.0953,-0.0954,-0.0955,-0.0956,0,0,-0.1485,-0.14,-0.1381,-0.1347,-0.128,-0.1227,-0.1154,-0.1085,-0.1048,-0.0994,-0.0933,-0.0841,-0.0855,-0.0814,-0.0803,-0.0755,-0.0671,-0.0777,-0.0775,-0.0758,-0.0557,-0.0545,-0.0529,-0.0674,-0.0671,-0.0669,-0.0562,0,-0.1381,-0.1252,-0.1233,-0.1119,-0.1056,-0.1056,-0.0993,-0.0946,-0.092,-0.0863,-0.0836,-0.077,-0.0794,-0.077,-0.0723,-0.0691,-0.063,-0.0699,-0.0617,-0.0614,-0.063,-0.051,-0.0496,-0.0398,-0.0548,-0.0546,-0.0544,0,-0.1243,-0.1186,-0.1065,-0.1008,-0.0981,-0.0924,-0.0859,-0.0805,-0.0751,-0.0736,-0.0692,-0.0686,-0.0612,-0.0652,-0.0549,-0.0596,-0.0562,-0.0542,-0.0537,-0.0528,-0.0573,-0.0497,-0.0366,-0.0351,-0.0522,-0.0523,-0.0525,0,-0.1172,-0.1065,-0.0979,-0.095,-0.0881,-0.0841,-0.0811,-0.076,-0.072,-0.0664,-0.0637,-0.0573,-0.0538,-0.0489,-0.0467,-0.0498,-0.0365,-0.0404,-0.0351,-0.0351,-0.0321,-0.0323,-0.0183,-0.0301,-0.0301,-0.0302,-0.0302,0,-0.1058,-0.0984,-0.0946,-0.0893,-0.0811,-0.0791,-0.071,-0.0681,-0.0636,-0.0578,-0.0576,-0.0521,-0.0496,-0.0438,-0.042,-0.0338,-0.0322,-0.0308,-0.0304,-0.0307,-0.0309,-0.0284,-0.0289,-0.0298,-0.0298,-0.0299,-0.03,0,-0.0964,-0.0936,-0.0842,-0.0785,-0.0769,-0.071,-0.0661,-0.0611,-0.0586,-0.0513,-0.0495,-0.0457,-0.0388,-0.0362,-0.0278,-0.0266,-0.0171,-0.0173,-0.0189,-0.0188,-0.0136,-0.0141,0.0027,0.005,-0.0084,-0.0083,-0.0082,0,-0.0893,-0.0836,-0.0772,-0.0733,-0.0701,-0.0638,-0.0597,-0.0576,-0.0533,-0.0469,-0.0426,-0.0358,-0.0302,-0.0193,-0.0158,-0.0095,-0.0095,-0.004,-0.0085,-0.009,-0.0093,-0.0096,-0.009,-0.0032,-0.003,-0.0029,-0.0028,0,-0.0769,-0.0758,-0.0699,-0.0634,-0.0586,-0.0534,-0.0484,-0.0453,-0.0424,-0.0376,-0.0306,-0.0263,-0.0178,-0.0111,-0.0046,-0.0015,-0.0016,-0.0015,0.0001,-0.0001,-0.0013,-0.0005,-0.0165,-0.0018,-0.0019,-0.002,-0.0021,-0.0021,-0.0684,-0.0634,-0.0581,-0.0515,-0.0476,-0.0429,-0.0379,-0.0348,-0.0289,-0.0218,-0.021,-0.0135,-0.0084,0.0003,0.0037,0.0095,0.0081,0.0104,0.011,0.0115,0.0119,-0.0023,0.0107,0.0107,0.0107,0.0106,0.0106,0,-0.056,-0.0526,-0.0466,-0.0396,-0.0344,-0.0351,-0.0296,-0.0253,-0.0187,-0.0139,-0.0085,-0.0005,0.006,0.01,0.0165,0.0204,0.0205,0.0221,0.0219,0.0226,0.0128,0.0108,0.0219,0.0219,0.0219,0.0219,0.0219,0.0219,-0.0489,-0.0404,-0.0387,-0.0283,-0.025,-0.0176,-0.0145,-0.0102,-0.0064,0.0025,0.008,0.0105,0.0149,0.0217,0.0277,0.0286,0.0311,0.0328,0.0337,0.0245,0.0233,0.0222,0.0203,0.0333,0.0333,0.043,0.0431,0.0432]}]]